Location: ???????
(55.4231°N, 38.5570°E)
Time: 15:08:30
(UTC+00:00)

ADEOS II - Pass Details

Date: 05 August 2024
Orbit: 795 x 798 km, 98.7° (Epoch: 18 September)

Event Time Altitude Azimuth Distance (km) Brightness Sun altitude
Rises 00:29:02 0° 15° (NNE) 3,320 6.5 -8.6°
Reaches altitude 10° 00:31:23 10° 13° (NNE) 2,386 5.6 -8.4°
Maximum altitude 00:36:37 69° 291° (WNW) 857 2.2 -7.9°
Drops below altitude 10° 00:41:49 10° 209° (SSW) 2,367 3.9 -7.3°
Enters shadow 00:42:19 - 209° (SSW) 2,565 4.1 -7.3°
